Regional Weather Roundup
Issued by NWS Charleston, WV

Home | Current Version | Previous Version | Graphics & Text | Print | Product List | Glossary On
Versions: 1 2 3 4 5 6 7 8 9 10 11 12 13 14 15 16 17 18 19 20 21 22 23 24 25 26 27 28 29 30 31 32 33 34 35 36 37 38 39 40 41 42 43 44 45 46 47 48 49 50
000
ASUS41 KRLX 252010
RWRRLX
West Virginia Regional Weather Roundup
National Weather Service Charleston WV
Issued by National Weather Service Pittsburgh PA
400 PM EDT THU AUG 25 2016

Note: "fair" indicates few or no clouds below 12,000 feet with no
significant weather and/or obstructions to visibility.

WVZ003-252100-
Northern Panhandle of West Virginia

CITY           SKY/WX    TMP DP  RH WIND       PRES   REMARKS
WHEELING       PTSUNNY   87  73  62 SW9       30.06F HX  94
$$

WVZ009-252100-
Northwest West Virginia

CITY           SKY/WX    TMP DP  RH WIND       PRES   REMARKS
PARKERSBURG    MOSUNNY   89  74  60 SW10G17   30.08F HX  98
$$

WVZ006-252100-
Western West Virginia

CITY           SKY/WX    TMP DP  RH WIND       PRES   REMARKS
HUNTINGTON     MOSUNNY   91  72  53 W9        30.08F HX  98
$$

WVZ015-252100-
West Central West Virginia

CITY           SKY/WX    TMP DP  RH WIND       PRES   REMARKS
CHARLESTON     PTSUNNY   89  72  56 SW10      30.09F HX  96
$$

WVZ031-252100-
North Central West Virginia

CITY           SKY/WX    TMP DP  RH WIND       PRES   REMARKS
CLARKSBURG     PTSUNNY   85  74  69 SW8       30.09F HX  92
MORGANTOWN     PTSUNNY   85  71  63 SW7       30.09F HX  90
$$

WVZ035-042-252100-
South Central West Virginia

CITY           SKY/WX    TMP DP  RH WIND       PRES   REMARKS
BECKLEY        CLOUDY    82  69  64 W7        30.21F HX  85
BLUEFIELD      CLOUDY    81  68  64 W9        30.24F HX  84
$$

WVZ045-252100-
Greenbrier Valley of West Virginia

CITY           SKY/WX    TMP DP  RH WIND       PRES   REMARKS
LEWISBURG      PTSUNNY   84  69  61 SW7       30.18F HX  87
$$

WVZ047-252100-
Northern Mountains of West Virginia

CITY           SKY/WX    TMP DP  RH WIND       PRES   REMARKS
ELKINS         PTSUNNY   82  69  64 NW6       30.15F HX  85
$$

WVZ052-252100-
Eastern Panhandle of West Virginia

CITY           SKY/WX    TMP DP  RH WIND       PRES   REMARKS
MARTINSBURG    MOSUNNY   86  71  60 S6        30.03F HX  91
PETERSBURG     MOSUNNY   91  72  52 CALM      30.06F HX  98
$$




USA.gov is the U.S. government's official web portal to all federal, state and local government web resources and services.